Weather History for Sedona, AZ

Change the Weather History Date:

Tuesday, May 6, 2014

  Actual Average Record
Temperature  
Mean Temperature 60 °F -  
Max Temperature 69 °F 76 °F 84 °F (2011)
Min Temperature 50 °F 45 °F 50 °F (2014)
Degree Days  
Heating Degree Days 6    
Growing Degree Days 10 (Base 50)    
Moisture  
Dew Point 21 °F    
Average Humidity 22    
Maximum Humidity 32    
Minimum Humidity 15    
Precipitation  
Precipitation 0.00 in - - ()
Sea Level Pressure  
Sea Level Pressure 29.79 in    
Wind  
Wind Speed 16 mph (South)    
Max Wind Speed 24 mph    
Max Gust Speed 36 mph    
Visibility 10 miles    
Events      
Averages and records for this station are not official NWS values.
T = Trace of Precipitation, MM = Missing Value Source: NWS Daily Summary

Daily Weather History Graph

Daily Weather History Graph

Search for Another Location

Airport:

Trip Planner

Search our weather history database for the weather conditions in past years. The results will help you decide how hot, cold, wet, or windy it might be!

Date:

Astronomy

May. 06, 2014 Rise Set
Actual Time 5:31 AM MST 7:16 PM MST
Civil Twilight 5:04 AM MST 7:43 PM MST
Nautical Twilight 4:31 AM MST 8:17 PM MST
Astronomical Twilight 3:56 AM MST 8:52 PM MST
Moon 11:48 AM MST (5/6) 12:40 AM MST (5/6)
Length of Visible Light 14h 39m
Length of Day
13h 44m
Waxing Crescent, 47% of the Moon is Illuminated
May 6
Waxing Crescent
May 6
First Quarter
May 14
Full
May 21
Last Quarter
May 28
New

Hourly Weather History & Observations

Time (MST) Temp. Dew Point Humidity Pressure Visibility Wind Dir Wind Speed Gust Speed Precip Events Conditions
12:15 AM 62.6 °F 17.6 °F 18% 29.90 in 10.0 mi South 11.5 mph 19.6 mph N/A   Clear
4:55 AM 59.0 °F 21.2 °F 23% 29.85 in 10.0 mi South 18.4 mph 25.3 mph N/A   Clear
5:15 AM 59.0 °F 21.2 °F 23% 29.84 in 10.0 mi South 19.6 mph 25.3 mph N/A   Clear
5:35 AM 57.2 °F 21.2 °F 25% 29.85 in 10.0 mi South 17.3 mph 25.3 mph N/A   Clear
5:55 AM 57.2 °F 21.2 °F 25% 29.85 in 10.0 mi SSE 16.1 mph 23.0 mph N/A   Clear
6:15 AM 59.0 °F 21.2 °F 23% 29.85 in 10.0 mi South 12.7 mph 21.9 mph N/A   Clear
6:55 AM 60.8 °F 23.0 °F 23% 29.84 in 10.0 mi SSE 12.7 mph 24.2 mph N/A   Clear
7:15 AM 60.8 °F 21.2 °F 22% 29.84 in 10.0 mi South 15.0 mph 27.6 mph N/A   Clear
7:35 AM 60.8 °F 23.0 °F 23% 29.83 in 10.0 mi South 19.6 mph 25.3 mph N/A   Clear
7:55 AM 62.6 °F 23.0 °F 22% 29.83 in 10.0 mi South 17.3 mph 26.5 mph N/A   Clear
8:15 AM 62.6 °F 23.0 °F 22% 29.84 in 10.0 mi South 9.2 mph 25.3 mph N/A   Clear
8:35 AM 64.4 °F 23.0 °F 21% 29.83 in 10.0 mi South 15.0 mph 28.8 mph N/A   Clear
8:55 AM 62.6 °F 23.0 °F 22% 29.83 in 10.0 mi South 18.4 mph 28.8 mph N/A   Clear
9:15 AM 64.4 °F 23.0 °F 21% 29.82 in 10.0 mi South 19.6 mph 27.6 mph N/A   Clear
9:35 AM 64.4 °F 23.0 °F 21% 29.82 in 10.0 mi South 19.6 mph 25.3 mph N/A   Clear
9:55 AM 68.0 °F 21.2 °F 17% 29.81 in 10.0 mi South 19.6 mph 31.1 mph N/A   Clear
10:15 AM 68.0 °F 21.2 °F 17% 29.79 in 10.0 mi South 23.0 mph 33.4 mph N/A   Clear
10:35 AM 69.8 °F 21.2 °F 16% 29.79 in 10.0 mi South 17.3 mph 28.8 mph N/A   Clear
10:55 AM 69.8 °F 19.4 °F 15% 29.79 in 10.0 mi South 23.0 mph 33.4 mph N/A   Clear
11:15 AM 69.8 °F 19.4 °F 15% 29.79 in 10.0 mi South 15.0 mph 26.5 mph N/A   Clear
11:35 AM 69.8 °F 19.4 °F 15% 29.78 in 10.0 mi SSW 18.4 mph 31.1 mph N/A   Clear
11:55 AM 69.8 °F 21.2 °F 16% 29.78 in 10.0 mi SW 15.0 mph 29.9 mph N/A   Clear
12:15 PM 68.0 °F 23.0 °F 18% 29.78 in 10.0 mi SSW 16.1 mph 23.0 mph N/A   Clear
12:35 PM 68.0 °F 23.0 °F 18% 29.76 in 10.0 mi SSW 20.7 mph 28.8 mph N/A   Clear
1:15 PM 64.4 °F 23.0 °F 21% 29.76 in 10.0 mi SW 18.4 mph 32.2 mph N/A   Clear
1:35 PM 62.6 °F 26.6 °F 26% 29.76 in 10.0 mi SW 16.1 mph 33.4 mph N/A   Clear
1:55 PM 62.6 °F 23.0 °F 22% 29.77 in 10.0 mi SW 21.9 mph 33.4 mph N/A   Clear
2:15 PM 62.6 °F 23.0 °F 22% 29.76 in 10.0 mi SSW 24.2 mph 35.7 mph N/A   Clear
2:35 PM 62.6 °F 23.0 °F 22% 29.76 in 10.0 mi SW 21.9 mph 33.4 mph N/A   Clear
2:55 PM 62.6 °F 24.8 °F 24% 29.76 in 10.0 mi SSW 20.7 mph 32.2 mph N/A   Clear
3:15 PM 62.6 °F 26.6 °F 26% 29.75 in 10.0 mi SSW 20.7 mph 28.8 mph N/A   Clear
3:35 PM 62.6 °F 26.6 °F 26% 29.75 in 10.0 mi SSW 18.4 mph 27.6 mph N/A   Scattered Clouds
3:55 PM 62.6 °F 23.0 °F 22% 29.76 in 10.0 mi SSW 16.1 mph 27.6 mph N/A   Clear
4:15 PM 64.4 °F 24.8 °F 22% 29.76 in 10.0 mi SSW 19.6 mph 31.1 mph N/A   Clear
4:35 PM 64.4 °F 23.0 °F 21% 29.76 in 10.0 mi South 13.8 mph 35.7 mph N/A   Clear
4:55 PM 64.4 °F 21.2 °F 19% 29.75 in 10.0 mi SW 19.6 mph 33.4 mph N/A   Scattered Clouds
5:15 PM 64.4 °F 24.8 °F 22% 29.76 in 10.0 mi SSW 16.1 mph 27.6 mph N/A   Clear
5:35 PM 60.8 °F 24.8 °F 25% 29.75 in 10.0 mi SSW 18.4 mph 35.7 mph N/A   Scattered Clouds
5:55 PM 60.8 °F 24.8 °F 25% 29.75 in 10.0 mi SSW 13.8 mph 34.5 mph N/A   Clear
6:15 PM 59.0 °F 23.0 °F 25% 29.75 in 10.0 mi SSW 15.0 mph 27.6 mph N/A   Clear
6:35 PM 59.0 °F 14.0 °F 17% 29.75 in 10.0 mi South 20.7 mph 31.1 mph N/A   Clear
6:55 PM 59.0 °F 10.4 °F 15% 29.75 in 10.0 mi South 16.1 mph 25.3 mph N/A   Clear
7:15 PM 57.2 °F 15.8 °F 20% 29.75 in 10.0 mi SW 18.4 mph 28.8 mph N/A   Clear
7:35 PM 55.4 °F 17.6 °F 23% 29.75 in 10.0 mi WSW 12.7 mph 20.7 mph N/A   Clear
7:55 PM 55.4 °F 17.6 °F 23% 29.76 in 10.0 mi South 9.2 mph 19.6 mph N/A   Scattered Clouds
8:15 PM 55.4 °F 17.6 °F 23% 29.76 in 10.0 mi SW 12.7 mph 16.1 mph N/A   Mostly Cloudy
8:55 PM 53.6 °F 19.4 °F 26% 29.76 in 10.0 mi South 8.1 mph 16.1 mph N/A   Clear
9:15 PM 53.6 °F 19.4 °F 26% 29.76 in 10.0 mi South 9.2 mph 21.9 mph N/A   Clear
9:35 PM 53.6 °F 19.4 °F 26% 29.76 in 10.0 mi SSE 12.7 mph 16.1 mph N/A   Clear
9:55 PM 53.6 °F 19.4 °F 26% 29.77 in 10.0 mi SE 8.1 mph 17.3 mph N/A   Clear
10:15 PM 51.8 °F 17.6 °F 26% 29.77 in 10.0 mi SSE 17.3 mph - N/A   Clear
10:35 PM 51.8 °F 17.6 °F 26% 29.77 in 10.0 mi South 20.7 mph 31.1 mph N/A   Clear
10:55 PM 51.8 °F 19.4 °F 28% 29.78 in 10.0 mi South 16.1 mph 20.7 mph N/A   Clear
11:15 PM 51.8 °F 19.4 °F 28% 29.77 in 10.0 mi South 17.3 mph - N/A   Clear
11:35 PM 50.0 °F 19.4 °F 30% 29.78 in 10.0 mi South 11.5 mph - N/A   Clear
11:55 PM 50.0 °F 21.2 °F 32% 29.77 in 10.0 mi South 12.7 mph 18.4 mph N/A   Clear